TimeCST,TemperatureF,Dew PointF,Humidity,Sea Level PressureIn,VisibilityMPH,Wind Direction,Wind SpeedMPH,Gust SpeedMPH,PrecipitationIn,Events,Conditions,WindDirDegrees,DateUTC
12:53 AM,35.1,32.0,89,30.29,10.0,North,5.8,-,N/A,,Overcast,10,2013-12-08 06:53:00
1:53 AM,36.0,32.0,86,30.26,10.0,NNE,9.2,-,N/A,,Overcast,20,2013-12-08 07:53:00
2:53 AM,35.1,33.1,92,30.22,10.0,ENE,6.9,-,N/A,,Overcast,60,2013-12-08 08:53:00
3:53 AM,36.0,32.0,86,30.20,10.0,NE,9.2,-,N/A,,Overcast,40,2013-12-08 09:53:00
4:15 AM,35.6,32.0,87,30.20,10.0,North,9.2,-,N/A,,Overcast,360,2013-12-08 10:15:00
4:53 AM,36.0,33.1,89,30.22,10.0,North,6.9,-,N/A,,Overcast,10,2013-12-08 10:53:00
5:21 AM,35.6,33.8,93,30.18,9.0,NE,6.9,-,0.00,,Overcast,50,2013-12-08 11:21:00
5:53 AM,35.1,34.0,96,30.22,3.0,ESE,3.5,-,0.01,Rain,Rain,110,2013-12-08 11:53:00
5:58 AM,35.6,33.8,93,30.19,1.8,Calm,Calm,-,0.09,Rain,Heavy Rain,0,2013-12-08 11:58:00
6:15 AM,35.6,33.8,93,30.18,2.5,NE,4.6,-,0.35,Rain,Heavy Rain,50,2013-12-08 12:15:00
6:24 AM,35.6,33.8,93,30.17,5.0,ENE,5.8,-,0.37,Rain,Light Rain,60,2013-12-08 12:24:00
6:35 AM,35.6,33.8,93,30.17,7.0,NE,6.9,-,0.37,Rain,Light Rain,50,2013-12-08 12:35:00
6:53 AM,36.0,34.0,93,30.21,8.0,NNE,4.6,-,0.38,,Overcast,20,2013-12-08 12:53:00
7:37 AM,35.6,35.6,100,30.17,7.0,NE,8.1,-,0.00,Rain,Light Rain,50,2013-12-08 13:37:00
7:53 AM,37.0,35.1,93,30.20,9.0,NNE,9.2,-,0.00,,Overcast,20,2013-12-08 13:53:00
8:09 AM,37.4,35.6,93,30.16,4.0,NE,9.2,-,0.01,Rain,Light Rain,40,2013-12-08 14:09:00
8:53 AM,37.0,36.0,96,30.19,9.0,NE,5.8,-,0.01,,Overcast,40,2013-12-08 14:53:00
9:21 AM,37.4,35.6,93,30.17,5.0,ENE,5.8,-,0.02,Rain-Thunderstorm,Rain,70,2013-12-08 15:21:00
9:36 AM,37.4,37.4,100,30.18,5.0,ENE,4.6,-,0.02,Rain,Light Rain,70,2013-12-08 15:36:00
9:53 AM,37.9,36.0,93,30.21,4.0,North,3.5,-,0.03,Rain,Light Rain,10,2013-12-08 15:53:00
10:53 AM,39.0,37.9,96,30.19,4.0,NNE,5.8,-,0.02,Rain,Light Rain,20,2013-12-08 16:53:00
11:15 AM,39.2,37.4,93,30.17,1.8,North,6.9,-,0.04,Rain,Rain,350,2013-12-08 17:15:00
11:19 AM,39.2,37.4,93,30.16,3.0,North,8.1,-,0.05,Rain,Light Rain,360,2013-12-08 17:19:00
11:53 AM,39.0,37.9,96,30.17,2.0,NNE,9.2,-,0.12,Rain,Heavy Rain,20,2013-12-08 17:53:00
12:10 PM,39.2,37.4,93,30.14,4.0,North,6.9,-,0.08,Rain-Thunderstorm,Light Rain,360,2013-12-08 18:10:00
12:40 PM,39.2,37.4,93,30.11,2.5,North,8.1,-,0.12,Rain,Rain,10,2013-12-08 18:40:00
12:49 PM,39.2,37.4,93,30.11,4.0,NNE,6.9,-,0.13,Rain,Light Rain,20,2013-12-08 18:49:00
12:53 PM,39.9,39.0,97,30.13,4.0,North,4.6,-,0.13,Rain,Light Rain,360,2013-12-08 18:53:00
1:02 PM,39.2,39.2,100,30.09,1.8,NNE,8.1,-,0.02,Rain,Heavy Rain,20,2013-12-08 19:02:00
1:10 PM,39.2,39.2,100,30.10,3.0,NNW,6.9,-,0.07,Rain,Light Rain,340,2013-12-08 19:10:00
1:29 PM,41.0,39.2,93,30.09,2.5,North,8.1,-,0.10,Rain,Rain,350,2013-12-08 19:29:00
1:37 PM,39.2,39.2,100,30.09,5.0,North,8.1,-,0.10,Rain,Light Rain,350,2013-12-08 19:37:00
1:53 PM,41.0,39.0,93,30.10,3.0,North,9.2,-,0.12,Rain,Rain,360,2013-12-08 19:53:00
2:53 PM,42.1,39.9,92,30.09,9.0,NNE,6.9,-,0.01,,Overcast,30,2013-12-08 20:53:00
3:53 PM,43.0,41.0,93,30.09,9.0,NNE,9.2,-,N/A,,Overcast,20,2013-12-08 21:53:00
4:53 PM,43.0,42.1,97,30.09,6.0,North,5.8,-,N/A,,Overcast,10,2013-12-08 22:53:00
5:53 PM,43.0,42.1,97,30.10,6.0,NNE,6.9,-,N/A,,Overcast,30,2013-12-08 23:53:00
6:53 PM,44.1,43.0,96,30.13,7.0,Calm,Calm,-,N/A,,Overcast,0,2013-12-09 00:53:00
7:53 PM,45.0,43.0,93,30.13,7.0,North,5.8,-,N/A,,Overcast,360,2013-12-09 01:53:00
8:53 PM,45.0,43.0,93,30.14,8.0,NNE,4.6,-,N/A,,Overcast,30,2013-12-09 02:53:00
9:53 PM,45.0,43.0,93,30.14,8.0,North,6.9,-,N/A,,Overcast,10,2013-12-09 03:53:00
10:00 PM,44.6,42.8,93,30.12,9.0,NNE,4.6,-,N/A,,Overcast,30,2013-12-09 04:00:00
10:16 PM,44.6,42.8,93,30.13,9.0,ENE,4.6,-,N/A,,Overcast,70,2013-12-09 04:16:00
10:53 PM,45.0,43.0,93,30.15,8.0,NE,5.8,-,N/A,,Overcast,50,2013-12-09 04:53:00
11:07 PM,44.6,42.8,93,30.13,9.0,NE,6.9,-,N/A,,Overcast,40,2013-12-09 05:07:00
11:53 PM,45.0,43.0,93,30.14,10.0,NNE,5.8,-,N/A,,Overcast,30,2013-12-09 05:53:00